Location: Kinloch
(38.7406°N, 90.3254°W)
Time: 15:44:06
(UTC+00:00)

Cosmos 2221 Rocket - Pass Details

Date: 13 February 2026
Orbit: 616 x 641 km, 82.5° (Epoch: 8 March)

Event Time Altitude Azimuth Distance (km) Brightness Sun altitude
Rises 12:08:58 0° 341° (NNW) 2,954 6.8 -9.5°
Reaches altitude 10° 12:11:25 10° 331° (NNW) 2,039 5.9 -9.0°
Maximum altitude 12:15:22 31° 270° (W) 1,134 4.4 -8.3°
Drops below altitude 10° 12:19:18 10° 209° (SSW) 2,018 6.0 -7.5°
Sets 12:21:43 0° 199° (SSW) 2,918 6.9 -7.1°
